657  
ASUS44 KMEG 282110  
RWRMEG  
MEMPHIS CWA HOURLY WEATHER ROUNDUP  
NATIONAL WEATHER SERVICE MEMPHIS TN  
300 PM CST MON NOV 28 2022  
   
..WEST TENNESSEE
 
 
 
CITY SKY/WX TMP DP RH WIND PRES REMARKS
 
MEMPHIS INTL PTSUNNY 60 46 59 S7 29.96S  
NWS MEMPHIS N/A 60 N/A N/A MISG N/A  
FRAYSER CLEAR 61 48 63 S7 29.94S  
JACKSON PTSUNNY 58 45 62 SW5 29.97S  
COVINGTON MOSUNNY 61 45 55 W7 29.96  
SOMERVILLE PTSUNNY 61 45 55 S7 29.95S  
BOLIVAR CLOUDY 61 45 55 SW7 29.96S  
SAVANNAH PTSUNNY 59 45 58 SW9 29.97S  
DYERSBURG MOSUNNY 57 44 62 W8 29.97F  
UNION CITY CLOUDY 55 45 67 CALM 29.96S  
PARIS CLOUDY 55 46 71 W7 29.96S  
HUNTINGDON CLOUDY 57 45 62 W6 29.95S  
 
   
..EASTERN ARKANSAS
 
 
 
CITY SKY/WX TMP DP RH WIND PRES REMARKS
 
JONESBORO PTSUNNY 56 45 66 SW9 29.96S  
WEST MEMPHIS PTSUNNY 60 46 59 SW6 29.95S  
BATESVILLE MOSUNNY 59 45 58 S7 29.93F  
NEWPORT SUNNY 58 45 62 S6 29.95S  
WALNUT RIDGE MOSUNNY 56 44 64 S10 29.95S  
BLYTHEVILLE CLOUDY 57 44 62 SW8 29.96S  
SEARCY SUNNY 61 45 55 MISG 29.94F  
STUTTGART SUNNY 61 47 59 SW9 29.95F  
PINE BLUFF SUNNY 65 45 48 S8 29.94S  
MONTICELLO SUNNY 66 47 50 SW5 29.94F  
 
   
..NORTH MISSISSIPPI
 
 
 
CITY SKY/WX TMP DP RH WIND PRES REMARKS
 
TUPELO SUNNY 64 44 48 VRB7 29.98F  
OXFORD PTSUNNY 63 45 51 VRB6G13 29.99S  
BATESVILLE MOSUNNY 64 46 52 SW8 29.97S  
OLIVE BRANCH MOSUNNY 61 46 59 SW9 29.96S  
TUNICA MOSUNNY 60 52 73 S8 29.97S  
CLARKSDALE PTSUNNY 63 48 59 S8 29.98R  
CORINTH CLOUDY 63 43 48 CALM 29.98S  
IUKA CLOUDY 60 47 63 VRB7 30.00S  
GREENWOOD SUNNY 67 47 48 S7 29.98S  
COLUMBUS SUNNY 64 43 46 E3 30.01F  
STARKVILLE SUNNY 63 45 51 S3 29.98S  
GOLDEN TRIANGL SUNNY 63 45 51 VRB5 30.00F  
 
   
..SOUTHEAST MISSOURI
 
 
 
CITY SKY/WX TMP DP RH WIND PRES REMARKS
 
KENNETT PTSUNNY 57 45 62 SW10 29.96R  
MALDEN SUNNY 55 41 58 CALM 29.97F  
WEST PLAINS SUNNY 56 37 49 S8 29.90S  
POPLAR BLUFF MOSUNNY 52 41 66 S8 29.95S  
CAPE GIRARDEAU CLOUDY 50 41 71 SW7 29.96S  
 
   
..NORTHWEST ALABAMA
 
 
 
CITY SKY/WX TMP DP RH WIND PRES REMARKS
 
MUSCLE SHOALS SUNNY 63 43 48 CALM 29.98S  
 
   
..MIDDLE TENNESSEE
 
 
 
CITY SKY/WX TMP DP RH WIND PRES REMARKS
 
NASHVILLE PTSUNNY 58 42 55 SE8 30.00S  
CLARKSVILLE CLOUDY 55 43 63 CALM 29.98S  
DICKSON CLOUDY 57 43 58 SW7 29.95F  
COLUMBIA MOSUNNY 59 43 55 SW7 29.96S  
LAWRENCEBURG SUNNY 57 41 54 S3 29.98R  
LEWISBURG SUNNY 57 41 54 CALM 29.98S  
 
   
..WESTERN KENTUCKY
 
 
 
CITY SKY/WX TMP DP RH WIND PRES REMARKS
 
PADUCAH CLOUDY 52 42 69 VRB3 29.97R  
FORT CAMPBELL CLOUDY 53 46 76 CALM 29.97R  
 
   
..CENTRAL ARKANSAS
 
 
 
CITY SKY/WX TMP DP RH WIND PRES REMARKS
 
LITTLE ROCK MOSUNNY 63 43 48 S10 29.93F  
 
SKY/WX REPORTED AS FAIR MEANS FEW OR NO CLOUDS BELOW  
12 THOUSAND FEET.  
 
 
 
CLICK HERE TO GO TO PREVIOUS BULLETINS.

The Nexlab TN Page
The Nexlab MS Page
The Nexlab AR Page Main Text Page